"Pseudo-MPEC" for P10OWGh

Created 2019 Jun 18 13:07:54 UT using Find_Orb

Click here for an explanation of pseudo-MPECs

 
 Astrometry: 
     P10OWGh  C2019 06 11o*PZG_qO=ouZi['[lKssN5n?i+yt3T5(8e_%g4B\dVLy]akc[d7pF51
     P10OWGh  C2019 06 11X09dc4QIAstrometryYViOpn^jxHG$G^f8GGredacted;V9clickF51
     P10OWGh  C2019 06 11q5IeS3y*+here=;kl19.J*`L+etCQfkRw^#f-h?tg#%jtu5@,)(0F51
     P10OWGh  C2019 06 11gh]rS1o*Q:\Nx`:,N3Zpj::d5O^AXf,yUiqfor.AmexplanationF51

Station data:
(F51) Pan-STARRS 1, Haleakala  (N20.707235 W156.255910)  US/Hawaii.
   Observers N. Primak, A. Schultz, S. Watters, J. Thiel, T. Goggia. Measurer
   PS1 Science Consortium. 1.8-m Ritchey-Chrétien + CCD.

Orbital elements:  P10OWGh
   Perihelion 2018 Apr 22.917803 +/- 355 TT = 22:01:38 (JD 2458231.417803)
Epoch 2019 Jun 12.0 TT = JDT 2458646.5   Earth MOID: 0.6810   AutoNEOCP
M  70.67867518 +/- 100              (J2000 ecliptic)
n   0.17027633 +/- 0.376            Peri.  297.24755 +/- 60
a   3.22378834 +/- 4.74             Node   254.17903 +/- 70
e   0.5051097 +/- 0.216             Incl.   18.63844 +/- 35
P   5.79                   H 16.0   G  0.15   U 12.1  SR
q 1.59542151 +/- 1.68    Q 4.85215516 +/- 51
From 4 observations 2019 June 11 (56.2 min); mean residual 0".04
Residuals in arcseconds: 
190611 F51  .05+  .04-    190611 F51  .01+  .01+    
190611 F51  .07-  .05+    190611 F51  .02+  .02-    

Ephemerides (geocentric):
Date (UTC) HH   RA              Dec         delta   r     elong  mag " sig PA
---- -- -- --  -------------   -----------  ------ ------ -----  --- ---- ---
2019 06 18 13  22 00 08.961   +08 54 19.65  3.0342 3.5140 110.0 22.0  35d   0
2019 06 18 14  22 00 08.584   +08 54 34.17  3.0339 3.5142 110.0 22.0  35d   1
2019 06 18 15  22 00 08.204   +08 54 48.68  3.0335 3.5144 110.1 22.0  35d   1
2019 06 18 16  22 00 07.823   +08 55 03.18  3.0332 3.5146 110.1 22.0  35d   1
2019 06 18 17  22 00 07.439   +08 55 17.66  3.0328 3.5147 110.2 22.0  35d   1
2019 06 18 18  22 00 07.054   +08 55 32.14  3.0324 3.5149 110.2 22.0  35d   2
2019 06 18 19  22 00 06.667   +08 55 46.60  3.0321 3.5151 110.2 22.0  35d   2
2019 06 18 20  22 00 06.278   +08 56 01.05  3.0317 3.5153 110.3 22.0  35d   2
2019 06 18 21  22 00 05.886   +08 56 15.49  3.0314 3.5155 110.3 22.0  35d   2
2019 06 18 22  22 00 05.493   +08 56 29.92  3.0310 3.5157 110.3 22.0  35d   2
2019 06 18 23  22 00 05.099   +08 56 44.33  3.0307 3.5158 110.4 22.0  35d   2
2019 06 19 00  22 00 04.702   +08 56 58.74  3.0303 3.5160 110.4 22.0  35d   2
2019 06 19 01  22 00 04.303   +08 57 13.13  3.0299 3.5162 110.4 22.0  35d   2
2019 06 19 02  22 00 03.902   +08 57 27.51  3.0296 3.5164 110.5 22.0  35d   2
2019 06 19 03  22 00 03.500   +08 57 41.88  3.0292 3.5166 110.5 22.0  35d   2
2019 06 19 04  22 00 03.095   +08 57 56.24  3.0289 3.5167 110.6 22.0  35d   2
2019 06 19 05  22 00 02.689   +08 58 10.58  3.0285 3.5169 110.6 22.0  35d   2
2019 06 19 06  22 00 02.280   +08 58 24.92  3.0282 3.5171 110.6 22.0  35d   2
2019 06 19 07  22 00 01.870   +08 58 39.24  3.0278 3.5173 110.7 22.0  35d   2
2019 06 19 08  22 00 01.458   +08 58 53.55  3.0274 3.5175 110.7 22.0  35d   2
2019 06 19 09  22 00 01.044   +08 59 07.85  3.0271 3.5177 110.7 22.0  35d   2
2019 06 19 10  22 00 00.628   +08 59 22.14  3.0267 3.5178 110.8 22.0  35d   2
2019 06 19 11  22 00 00.210   +08 59 36.41  3.0264 3.5180 110.8 22.0  35d   2
2019 06 19 12  21 59 59.790   +08 59 50.68  3.0260 3.5182 110.8 22.0  35d   2
2019 06 19 13  21 59 59.368   +09 00 04.93  3.0257 3.5184 110.9 22.0  35d   2
2019 06 19 14  21 59 58.944   +09 00 19.17  3.0253 3.5186 110.9 22.0  35d   2
2019 06 19 15  21 59 58.519   +09 00 33.40  3.0250 3.5187 111.0 22.0  35d   2
2019 06 19 16  21 59 58.091   +09 00 47.61  3.0246 3.5189 111.0 22.0  35d   2
2019 06 19 17  21 59 57.661   +09 01 01.82  3.0243 3.5191 111.0 22.0  35d   2
2019 06 19 18  21 59 57.230   +09 01 16.01  3.0239 3.5193 111.1 22.0  35d   2
2019 06 19 19  21 59 56.797   +09 01 30.19  3.0235 3.5195 111.1 22.0  35d   2
2019 06 19 20  21 59 56.361   +09 01 44.36  3.0232 3.5197 111.1 22.0  35d   2
2019 06 19 21  21 59 55.924   +09 01 58.52  3.0228 3.5198 111.2 22.0  35d   2
2019 06 19 22  21 59 55.485   +09 02 12.66  3.0225 3.5200 111.2 22.0  35d   2
2019 06 19 23  21 59 55.044   +09 02 26.80  3.0221 3.5202 111.3 22.0  35d   2
2019 06 20 00  21 59 54.601   +09 02 40.92  3.0218 3.5204 111.3 22.0  35d   2
2019 06 20 01  21 59 54.156   +09 02 55.03  3.0214 3.5206 111.3 22.0  35d   2
2019 06 20 02  21 59 53.710   +09 03 09.13  3.0211 3.5207 111.4 22.0  36d   2
2019 06 20 03  21 59 53.261   +09 03 23.21  3.0207 3.5209 111.4 22.0  36d   2
2019 06 20 04  21 59 52.810   +09 03 37.28  3.0204 3.5211 111.4 22.0  36d   1
2019 06 20 05  21 59 52.358   +09 03 51.35  3.0200 3.5213 111.5 22.0  36d   1
2019 06 20 06  21 59 51.903   +09 04 05.40  3.0197 3.5215 111.5 22.0  37d   1
2019 06 20 07  21 59 51.447   +09 04 19.43  3.0193 3.5217 111.5 22.0  37d   1
2019 06 20 08  21 59 50.989   +09 04 33.46  3.0190 3.5218 111.6 22.0  38d   1
2019 06 20 09  21 59 50.528   +09 04 47.48  3.0186 3.5220 111.6 22.0  38d   1
2019 06 20 10  21 59 50.066   +09 05 01.48  3.0183 3.5222 111.7 22.0  38d   2
2019 06 20 11  21 59 49.602   +09 05 15.47  3.0179 3.5224 111.7 22.0  38d   2
2019 06 20 12  21 59 49.136   +09 05 29.45  3.0175 3.5226 111.7 22.0  38d   2